sat.trackr.live / text

‹ back to catalog

SDA_1672

NORAD 65982 · 2025-230J

PAYLOAD ACTIVE UNKNOWN

§ Identity

Operator
Country
US
Launch date
2025-10-15
Launch site
AFWTR
Launch vehicle
Mass (kg)
RCS (m²)

External: N2YO · Heavens-Above · Gunter

§ Orbital elements

Epoch: 2026-09-20T14:27:52.962048Z

Period
104.18 min
Inclination
81.3000°
Eccentricity
0.0000881
Mean motion
13.82263731 rev/d
Perigee alt
955.2 km
Apogee alt
956.5 km
Semi-major
7,334.0 km
B*
1.0981e-4
RAAN
123.9704°
Arg perigee
74.4720°
Mean anomaly
285.6533°
Rev number
4,697

§ Raw data

SDA_16721 65982U 25230J   26263.60269632  .00000130  00000+0  10981-3 0  99902 65982  81.3000 123.9704 0000881  74.4720 285.6533 13.82263731 46975

JSON: /api/v1/satellites/65982 · /tle

For live sub-satellite position, see the globe view (requires WebGL).

§ Visibility from observer

Set your observer location to see the next 7 days of passes ≥ 10°. The values pass through the URL so the page stays shareable.

No JS? Fill the form by hand. The geolocation button needs JavaScript.